Regional Weather Roundup
Issued by NWS Upton, NY

Current Version | Previous Version | Graphics & Text | Print | Product List | Glossary Off
Versions: 1 2 3 4 5 6 7 8 9 10 11 12 13 14 15 16 17 18 19 20 21 22 23 24 25 26 27 28 29 30 31 32 33 34 35 36 37 38 39 40 41 42 43 44 45 46 47 48 49 50

241
ASUS41 KOKX 240009
RWROKX

REGIONAL WEATHER ROUNDUP
NATIONAL WEATHER SERVICE NEW YORK NY
800 PM EDT SUN APR 23 2017

NOTE: "FAIR" INDICATES FEW OR NO CLOUDS BELOW 12,000 FEET WITH NO
SIGNIFICANT WEATHER AND/OR OBSTRUCTIONS TO VISIBILITY.

NYZ071-072-176-178-NJZ106-104-240100-
NEW YORK CITY METRO AREA

CITY           SKY/WX    TMP DP  RH WIND       PRES   REMARKS
Central Park   MOCLDY    53  41  63 VRB7      30.12R
Wall St Helipt MOCLDY    54  43  66 SE7       30.12R
Bronx Bot Gard   N/A     50  41  71 S3        30.10F
LaGuardia APRT MOCLDY    53  42  66 S15       30.10R
Kennedy INTL   CLOUDY    50  43  77 S13       30.12R
Breezy Point     N/A     48 N/A N/A S16         N/A
Newark/Liberty CLOUDY    56  42  59 VRB5      30.09R
Teterboro      MOCLDY    55  41  59 S7        30.08R
$$

NYZ177-179-078>081-240100-
LONG ISLAND NEW YORK

CITY           SKY/WX    TMP DP  RH WIND       PRES   REMARKS
Jones Beach      N/A     48 N/A N/A S10         N/A
Matinecock PT    N/A     52 N/A N/A S5          N/A
Farmingdale    PTCLDY    49  39  68 S13       30.12R
MacArthur/ISP  MOCLDY    49  41  74 S8        30.12R
Shirley        CLOUDY    48  41  76 S9        30.13R
Mt Sinai Harb    N/A    N/A N/A N/A S8          N/A
Westhampton    CLOUDY    46  38  73 S5        30.14R
East Hampton     N/A     45  41  84 S5        30.12R
Montauk          N/A     47  43  86 S7        30.14R
$$

NYZ052-065-067-240100-
HUDSON VALLEY

CITY           SKY/WX    TMP DP  RH WIND       PRES   REMARKS
White Plains   PTCLDY    51  39  63 S6        30.09R
Larchmont Harb   N/A     50 N/A N/A S8          N/A
Croton O-T Hud   N/A     55 N/A N/A S7G13       N/A
Newburgh       MOCLDY    63  36  36 S8        30.05S
Montgomery     CLOUDY    60  35  39 SW7       30.03R
Poughkeepsie   CLOUDY    63  33  32 S5        30.03R
Albany         PTCLDY    63  33  32 S3        30.03R
$$

NJZ001-105-106-008-010-013-015-019>022-104-240100-
NEW JERSEY

CITY           SKY/WX    TMP DP  RH WIND       PRES   REMARKS
Newark/Liberty CLOUDY    56  42  59 VRB5      30.09R
Teterboro      MOCLDY    55  41  59 S7        30.08R
Caldwell       MOCLDY    58  40  51 VRB5      30.08R
Somerville     PTCLDY    60  38  43 SE6       30.06R
Linden           N/A     57  39  51 S6        30.09R
Sussex         CLOUDY    61  38  42 SW3       30.07R
Andover          N/A     60  38  43 VRB3      30.07R
Trenton        CLOUDY    57  46  66 S12       30.08R
Millville      CLOUDY    52  46  80 CALM      30.12R
Atlantic City  MOCLDY    51  44  77 S5        30.12R
Wrightstown    CLEAR     52  44  76 S6        30.08R
Toms River     CLOUDY    50  45  83 CALM      30.12R
Belmar         MOCLDY    50  43  77 SE5       30.12R
$$

PAZ047>061-062-071-240100-
EASTERN PENNSYLVANIA

CITY           SKY/WX    TMP DP  RH WIND       PRES   REMARKS
Philadelphia   CLOUDY    57  46  66 S7        30.10R
Allentown      CLOUDY    60  38  43 S5        30.06R
Scranton       PTCLDY    64  36  35 S6        30.04R
$$

CTZ002-004>006-009-010-012-RIZ004-006-007-MAZ004-011-015-240100-
SOUTHERN NEW ENGLAND
 IN CT

CITY           SKY/WX    TMP DP  RH WIND       PRES   REMARKS
Bradley INTL   PTCLDY    58  37  45 S14       30.06R
Hartford       CLOUDY    56  40  55 S9        30.08R
Danbury        CLOUDY    55  39  54 S5        30.08R
Wtrbury/Oxford MOCLDY    54  37  54 S10G16    30.10R
Bridgeport     CLOUDY    52  40  63 S13       30.10R
Meriden        PTCLDY    54  41  61 S10       30.09R
New Haven      CLOUDY    49  42  77 S7        30.11R
Chester          N/A     48  39  71 S8        30.11R
Groton         CLOUDY    47  41  80 S8        30.11R
Wilimantic     CLOUDY    54  41  61 S10       30.09R

 IN RI

CITY           SKY/WX    TMP DP  RH WIND       PRES   REMARKS
Providence     CLOUDY    50  39  66 SW12      30.10R
Block Island   CLOUDY    46  42  86 SW10      30.13R
Westerly       PTCLDY    49  41  74 S7        30.12S
 IN MA

CITY           SKY/WX    TMP DP  RH WIND       PRES   REMARKS
Boston         PTCLDY    54  40  59 SW15      30.05R
Worcester      CLEAR     55  37  50 S14       30.05R
Westfield      CLEAR     60  38  43 S13       30.04R
Provincetown   CLEAR     47  43  86 S12G20    30.10R
Nantucket      PTCLDY    44  40  85 S9        30.12S
$$

ANZ330-335-338-340-345-350-353-355-240100-
COASTAL MARINE OBSERVATIONS


STATION/POSITION TIME  SKY/WX   TEMP    WIND        PRES    VSBY  WAVE
                                AIR SEA DIR/SP/G                  HT/PER
                 (UTC)          (F)     (DEG/KT/KT) (MB)    (MI)  (FT/S)
NY HARB ENTRANCE 2250            50 51  180/ 12/ 14 1019.2          3/11
20 S FIRE ISLAND 2350            48 48  180/  8/ 10 1019.7          3/11
GREAT SOUTH BAY  2315            49 56  190/ 12/ 14   N/A
23 SSW MONTAUK P 2350            46 46              1020.4          3/10
15 E BARNEGAT LI 2330               51                N/A           4/12
HUDSON CANYON    2250            48 49  110/  4/  4 1019.8          4/11
KINGS POINT      2330            50 49  210/ 12/ 14 1019.0
EXECUTION ROCKS  NOT AVBL
CENTRAL LI SOUND 2315            49     190/ 10/ 10   N/A           1/ 2
EASTERN LI SOUND NOT AVBL
ROBBINS REEF     2330            52     150/ 15/ 15 1019.1
$$


>>>>>>>>>>>>>>>>>>>>>>>>>>>> KEY <<<<<<<<<<<<<<<<<<<<<<<<<<<
>                                                          <
>     SKY/WX - Sky Condition/Present Weather               <
>     TMP    - Temperature in Fahrenheit                   <
>     DP     - Dew Point in Fahrenheit                     <
>     RH     - Relative Humidity in Percent                <
>     WIND   - Direction (from) and Speed in MPH           <
>     PRES   - Mean Sea Level Pressure (inches of Hg)      <
>     WCI    - Wind Chill Index                            <
>     VSB    - VISIBILITY IN MILES                         <
>     HX     - HEAT INDEX                                  <
>     TC     - TEMPERATURE IN CELSIUS                      <
>     VRB    - VARIABLE WIND DIRECTION                     <
>                                                          <
>>>>>>>>>>>>>>>>>>>>>>>>>>>> KEY <<<<<<<<<<<<<<<<<<<<<<<<<<<




USA.gov is the U.S. government's official web portal to all federal, state and local government web resources and services.